This demonstration page uses our WeatherBlox Daily Observations layout. Learn more.

Left ArrowRight Arrow

44.8408, -93.29828

Hourly Observations for September 3, 2019

Temp ( °F °C ) Dew Point ( °F °C ) Humidity (%) Winds ( mph kmh ) Pressure ( in mb ) Visibility ( mi km ) Precip ( " mm )
12:24 am 00:24 Cloudy 66 18.9 63 17.2 90 90 NE 6 9 29.81 1010 10 16 0.00 0.00
12:53 am 00:53 Cloudy 66 18.9 62 16.7 87 87 Calm 29.80 1009 10 16 0.00 0.00
1:37 am 01:37 Cloudy 66 18.9 63 17.2 90 90 Calm 29.78 1009 10 16 0.00 0.00
1:53 am 01:53 Cloudy 67 19.4 64 17.8 91 91 ESE 3 6 29.77 1008 10 16 0.00 0.00
2:15 am 02:15 Cloudy 67 19.4 64 17.8 91 91 ESE 5 7 29.75 1007 10 16 0.00 0.00
2:53 am 02:53 Cloudy 67 19.4 64 17.8 91 91 SE 5 7 29.73 1007 10 16 0.00 0.00
3:53 am 03:53 Cloudy 68 20 65 18.3 90 90 S 8 13 29.70 1006 10 16 0.00 0.00
4:53 am 04:53 Cloudy 68 20 66 18.9 93 93 W 3 6 29.71 1006 10 16 0.00 0.00
5:18 am 05:18 Cloudy 69 20.6 66 18.9 90 90 SW 6 9 29.70 1006 10 16 0.00 0.00
5:34 am 05:34 Cloudy 69 20.6 66 18.9 90 90 WSW 6 9 29.71 1006 10 16 0.00 0.00
5:49 am 05:49 Mostly Cloudy 70 21 66 19 88 88 W 9 15 29.70 1006 10 16 0.00 0.00
5:53 am 05:53 Mostly Cloudy 69 20.6 66 18.9 90 90 W 9 15 29.71 1006 10 16 0.00 0.00
6:53 am 06:53 Mostly Cloudy 70 21.1 67 19.4 90 90 WNW 14 22 29.72 1006 10 16 0.00 0.00
7:53 am 07:53 Cloudy 68 20 64 17.8 87 87 WNW 13 20 29.75 1008 10 16 0.00 0.00
8:32 am 08:32 Mostly Cloudy 68 20 64 17.8 87 87 WNW 13 20 29.76 1008 10 16 0.00 0.00
8:53 am 08:53 Mostly Cloudy 70 21.1 64 17.8 82 82 WNW 13 20 29.76 1008 10 16 0.00 0.00
9:29 am 09:29 Mostly Cloudy 70 21.1 63 17.2 79 79 WNW 14 22 29.74 1007 10 16 0.00 0.00
9:53 am 09:53 Partly Cloudy 71 21.7 63 17.2 76 76 W 12 19 29.75 1008 10 16 0.00 0.00
10:53 am 10:53 Mostly Sunny 74 23.3 54 12.2 50 50 NW 23 37 29.76 1008 10 16 0.00 0.00
11:53 am 11:53 Mostly Sunny 75 23.9 54 12.2 48 48 NW 26 43 29.78 1009 10 16 0.00 0.00
12:53 pm 12:53 Partly Cloudy 75 23.9 53 11.7 46 46 WNW 24 39 29.79 1009 10 16 0.00 0.00
1:53 pm 13:53 Partly Cloudy 77 25 53 11.7 43 43 WNW 21 33 29.81 1010 10 16 0.00 0.00
2:53 pm 14:53 Partly Cloudy 74 23.3 52 11.1 46 46 WNW 25 41 29.83 1010 10 16 0.00 0.00
3:53 pm 15:53 Partly Cloudy 75 23.9 52 11.1 45 45 WNW 25 41 29.85 1011 10 16 0.00 0.00
4:53 pm 16:53 Mostly Cloudy 72 22.2 53 11.7 52 52 NW 20 31 29.87 1011 10 16 0.00 0.00
5:53 pm 17:53 Cloudy 70 21.1 53 11.7 55 55 NW 16 26 29.90 1012 10 16 0.00 0.00
6:53 pm 18:53 Mostly Cloudy 68 20 53 11.7 59 59 WNW 20 31 29.92 1013 10 16 0.00 0.00
7:53 pm 19:53 Mostly Cloudy 66 18.9 53 11.7 63 63 WNW 15 24 29.94 1014 10 16 0.00 0.00
8:53 pm 20:53 Mostly Cloudy 65 18.3 53 11.7 66 66 WNW 14 22 29.97 1015 10 16 0.00 0.00
9:53 pm 21:53 Cloudy 65 18.3 51 10.6 61 61 NNW 16 26 29.99 1016 10 16 0.00 0.00
10:53 pm 22:53 Mostly Cloudy 63 17.2 49 9.4 60 60 NNW 18 30 30.02 1017 10 16 0.00 0.00
11:53 pm 23:53 Cloudy 62 16.7 48 8.9 60 60 NW 9 15 30.04 1017 10 16 0.00 0.00

Powered by AerisWeather